Skip Page Navigation
NASA JPL Caltech
NASA Logo - Jet Propulsion Laboratory + View the NASA Portal
+ Center for Near-Earth Object Studies
JPL Home Earth Solar System Stars & Galaxies Technology
JPL Solar System Dynamics
BODIES ORBITS EPHEMERIDES TOOLS PHYSICAL DATA DISCOVERY FAQ SITE MAP
JPL Small-Body Database Browser
Search: [ help ]  
(2016 AM67)
Classification: Jupiter Trojan          SPK-ID: 3740746
Ephemeris | Orbit Diagram | Orbital Elements | Mission Design | Physical Parameters ]

[ show orbit diagram ]
Orbital Elements at Epoch 2459200.5 (2020-Dec-17.0) TDB
Reference: JPL 12 (heliocentric ecliptic J2000)
 Element Value Uncertainty (1-sigma)   Units 
e .1516305298049046 1.2417e-07  
a 5.226638198068509 5.1752e-07 au
q 4.434120278996828 1.0372e-06 au
i 20.65309288385357 1.0078e-05 deg
node 115.8972802448859 1.9453e-05 deg
peri 225.6067466403207 6.6251e-05 deg
M 264.752510542961 8.4394e-05 deg
tp 2460355.237103471345
(2024-Feb-14.73710347)
0.0011742 TDB
period 4364.475742294359
11.95
0.00064823
1.775e-06
d
yr
n .08248413354927979 1.2251e-08 deg/d
Q 6.019156117140188 5.9599e-07 au
  Orbit Determination Parameters
   # obs. used (total)      98  
   data-arc span      3543 days (9.70 yr)  
   first obs. used      2011-07-26  
   last obs. used      2021-04-07  
   planetary ephem.      DE441  
   SB-pert. ephem.      SB441-N16  
   condition code      0  
   norm. resid. RMS      .52651  
   source      ORB  
   producer      Otto Matic  
   solution date      2021-May-04 15:55:59  

Additional Information
 Earth MOID = 3.45804 au 
 Jupiter MOID = .451475 au 
 T_jup = 2.850 
[ show covariance matrix ]

Ephemeris | Orbit Diagram | Orbital Elements | Mission Design | Physical Parameters ]

Physical Parameter Table
Parameter Symbol Value Units Sigma Reference Notes
absolute magnitude H 13.74   n/a E2021-GA5  
Ephemeris | Orbit Diagram | Orbital Elements | Mission Design | Physical Parameters ]
ABOUT SSD CREDITS/AWARDS PRIVACY/COPYRIGHT GLOSSARY LINKS
FirstGov 2021-May-14 15:16 UT
(server date/time)  
NASA Home Page
Site Manager:   Ryan S. Park
Webmaster  Alan B. Chamberlin